Location: Hoyos del Collado
(40.3594°N, 5.2003°W)
Time: 11:31:24
(UTC+00:00)

Cosmos 2227 Rocket - Pass Details

Date: 18 April 2024
Orbit: 837 x 846 km, 71.0° (Epoch: 21 May)

Event Time Altitude Azimuth Distance (km) Brightness Sun altitude
Rises 20:03:09 0° 353° (N) 3,415 5.8 -11.5°
Reaches altitude 10° 20:07:46 10° 27° (NNE) 2,475 4.6 -12.3°
Maximum altitude 20:09:27 11° 44° (NE) 2,384 4.4 -12.6°
Drops below altitude 10° 20:11:08 10° 62° (ENE) 2,471 4.3 -12.9°
Enters shadow 20:12:25 - 74° (ENE) 2,646 4.4 -13.1°
